,,Stat5,,Stat1,,Stat2,,Stat3,,Stat4,,Wind1,,Wind1,
time,status,PA1M_AVG,status,PR1M_SUM,status,RH1M_AVG,status,SR1M_AVG,status,TA1M_AVG,status,W1dAve1m,status,W1sAve1m,
2001-06-12, 00:00:01,VALID,917.592,VALID,0,VALID,94.5196,VALID,-0.0169808,VALID,18.4468,VALID,100,VALID,0.628239,
2001-06-12, 00:01:01,VALID,917.563,VALID,0,VALID,94.5324,VALID,-0.0169808,VALID,18.4404,VALID,117,VALID,0.845129,
2001-06-12, 00:02:01,VALID,917.549,VALID,0,VALID,94.2857,VALID,0,VALID,18.4535,VALID,117,VALID,0.740954,
2001-06-12, 00:03:01,VALID,917.538,VALID,0,VALID,94.1369,VALID,-0.0169808,VALID,18.4697,VALID,115,VALID,0.771484,
2001-06-12, 00:04:01,VALID,917.525,VALID,0,VALID,93.9728,VALID,-0.0339617,VALID,18.469,VALID,103,VALID,0.490954,
2001-06-12, 00:05:01,VALID,917.537,VALID,0,VALID,93.9449,VALID,0,VALID,18.4794,VALID,121,VALID,0.535684,
2001-06-12, 00:06:01,VALID,917.502,VALID,0,VALID,93.7414,VALID,-0.0169808,VALID,18.4823,VALID,102,VALID,0.517578,
2001-06-12, 00:07:01,VALID,917.497,VALID,0,VALID,93.7821,VALID,-0.0509425,VALID,18.4953,VALID,119,VALID,0.797903,
2001-06-12, 00:08:01,VALID,917.47,VALID,0,VALID,93.6193,VALID,-0.0169808,VALID,18.5116,VALID,119,VALID,0.698438,
2001-06-12, 00:09:01,VALID,917.453,VALID,0,VALID,93.435,VALID,0,VALID,18.5246,VALID,108,VALID,0.745117,
2001-06-12, 00:10:01,VALID,917.438,VALID,0,VALID,93.2544,VALID,-0.0169808,VALID,18.5239,VALID,114,VALID,0.613381,
2001-06-12, 00:11:01,VALID,917.419,VALID,0,VALID,92.8729,VALID,0.0169808,VALID,18.5365,VALID,127,VALID,0.832648,
2001-06-12, 00:12:01,VALID,917.427,VALID,0,VALID,92.4177,VALID,0.0169808,VALID,18.5299,VALID,131,VALID,0.89082,
2001-06-12, 00:13:01,VALID,917.415,VALID,0,VALID,92.4825,VALID,0.0339617,VALID,18.5331,VALID,141,VALID,0.943359,
2001-06-12, 00:14:01,VALID,917.429,VALID,0,VALID,92.8004,VALID,0,VALID,18.5621,VALID,134,VALID,0.893029,
2001-06-12, 00:15:01,VALID,917.432,VALID,0,VALID,92.878,VALID,0.0169808,VALID,18.5788,VALID,119,VALID,0.967516,
2001-06-12, 00:16:01,VALID,917.439,VALID,0,VALID,92.9085,VALID,0.0509425,VALID,18.5691,VALID,109,VALID,0.882617,
2001-06-12, 00:17:01,VALID,917.439,VALID,0,VALID,92.8513,VALID,0.0509425,VALID,18.5395,VALID,72,VALID,0.563281,
2001-06-12, 00:18:01,VALID,917.435,VALID,0,VALID,92.5843,VALID,0.0169808,VALID,18.5167,VALID,94,VALID,0.760417,
2001-06-12, 00:19:01,VALID,917.421,VALID,0,VALID,92.5944,VALID,0.0509425,VALID,18.5169,VALID,92,VALID,0.817023,
2001-06-12, 00:20:01,VALID,917.401,VALID,0,VALID,92.7267,VALID,0.0509425,VALID,18.5003,VALID,88,VALID,0.748438,
2001-06-12, 00:21:00,VALID,917.373,VALID,0,VALID,92.6326,VALID,0.0679233,VALID,18.4876,VALID,87,VALID,0.798437,
2001-06-12, 00:22:00,VALID,917.359,VALID,0,VALID,92.6923,VALID,0.0509425,VALID,18.4846,VALID,80,VALID,0.695513,
2001-06-12, 00:23:00,VALID,917.339,VALID,0,VALID,92.6771,VALID,0.0679233,VALID,18.4814,VALID,90,VALID,0.557977,
2001-06-12, 00:24:00,VALID,917.351,VALID,0,VALID,92.5563,VALID,0.0169808,VALID,18.4946,VALID,78,VALID,0.652539,
2001-06-12, 00:25:00,VALID,917.336,VALID,0,VALID,92.2346,VALID,0.0679233,VALID,18.4879,VALID,76,VALID,0.719141,
2001-06-12, 00:26:00,VALID,917.349,VALID,0,VALID,91.717,VALID,-0.0169808,VALID,18.463,VALID,80,VALID,0.753005,
2001-06-12, 00:27:00,VALID,917.338,VALID,0,VALID,91.5899,VALID,-0.0509425,VALID,18.4406,VALID,79,VALID,0.852796,
2001-06-12, 00:28:00,VALID,917.318,VALID,0,VALID,91.4513,VALID,-0.0339617,VALID,18.4215,VALID,87,VALID,0.926562,
2001-06-12, 00:29:00,VALID,917.304,VALID,0,VALID,90.8205,VALID,-0.0509425,VALID,18.4249,VALID,105,VALID,1.0334,
2001-06-12, 00:30:00,VALID,917.275,VALID,0,VALID,90.551,VALID,-0.0679233,VALID,18.4438,VALID,107,VALID,1.02324,
2001-06-12, 00:31:00,VALID,917.242,VALID,0,VALID,90.3755,VALID,-0.0509425,VALID,18.4796,VALID,107,VALID,0.953742,
2001-06-12, 00:32:00,VALID,917.213,VALID,0,VALID,90.406,VALID,-0.0509425,VALID,18.505,VALID,116,VALID,0.969727,
2001-06-12, 00:33:00,VALID,917.182,VALID,0,VALID,90.4022,VALID,-0.0339617,VALID,18.502,VALID,120,VALID,1.18184,
2001-06-12, 00:34:00,VALID,917.137,VALID,0,VALID,90.5751,VALID,-0.0169808,VALID,18.5022,VALID,117,VALID,1.14203,
2001-06-12, 00:35:00,VALID,917.097,VALID,0,VALID,90.5662,VALID,-0.0509425,VALID,18.4925,VALID,115,VALID,1.22738,
2001-06-12, 00:36:00,VALID,917.08,VALID,0,VALID,90.2801,VALID,-0.0849042,VALID,18.49,VALID,107,VALID,1.23574,
2001-06-12, 00:37:00,VALID,917.061,VALID,0,VALID,90.4441,VALID,-0.0509425,VALID,18.4925,VALID,115,VALID,0.631836,
2001-06-12, 00:38:00,VALID,917.052,VALID,0,VALID,89.4726,VALID,-0.101885,VALID,18.486,VALID,101,VALID,1.08954,
2001-06-12, 00:39:00,VALID,917.069,VALID,0,VALID,89.4587,VALID,-0.0849042,VALID,18.5804,VALID,71,VALID,0.933594,
2001-06-12, 00:40:00,VALID,917.074,VALID,0,VALID,89.8465,VALID,-0.0339617,VALID,18.615,VALID,62,VALID,0.964648,
2001-06-12, 00:41:00,VALID,917.08,VALID,0,VALID,90.2661,VALID,-0.0509425,VALID,18.5961,VALID,76,VALID,1.23672,
2001-06-12, 00:42:00,VALID,917.079,VALID,0,VALID,90.7303,VALID,-0.0509425,VALID,18.5308,VALID,96,VALID,1.18289,
2001-06-12, 00:43:00,VALID,917.076,VALID,0,VALID,91.0456,VALID,-0.0339617,VALID,18.5119,VALID,98,VALID,1.02097,
2001-06-12, 00:44:00,VALID,917.055,VALID,0,VALID,91.1791,VALID,-0.0679233,VALID,18.4634,VALID,99,VALID,1.02961,
2001-06-12, 00:45:00,VALID,917.049,VALID,0,VALID,91.4068,VALID,-0.0849042,VALID,18.4339,VALID,98,VALID,0.99043,
2001-06-12, 00:46:00,VALID,917.034,VALID,0,VALID,91.5682,VALID,-0.0509425,VALID,18.4115,VALID,87,VALID,0.748598,
2001-06-12, 00:47:00,VALID,917.035,VALID,0,VALID,91.7603,VALID,-0.0169808,VALID,18.3825,VALID,91,VALID,0.831414,
2001-06-12, 00:48:00,VALID,917.026,VALID,0,VALID,92.04,VALID,-0.0849042,VALID,18.3633,VALID,81,VALID,1.00137,
2001-06-12, 00:49:00,VALID,917.029,VALID,0,VALID,92.3846,VALID,-0.0679233,VALID,18.344,VALID,94,VALID,1.2707,
2001-06-12, 00:50:00,VALID,917.02,VALID,0,VALID,92.6224,VALID,-0.0679233,VALID,18.3177,VALID,90,VALID,1.05609,
2001-06-12, 00:51:00,VALID,917.003,VALID,0,VALID,93.2785,VALID,-0.0679233,VALID,18.2955,VALID,107,VALID,1.21608,
2001-06-12, 00:52:00,VALID,916.97,VALID,0,VALID,93.5138,VALID,-0.0169808,VALID,18.263,VALID,126,VALID,0.725977,
2001-06-12, 00:53:00,VALID,916.94,VALID,0,VALID,94.1191,VALID,-0.0339617,VALID,18.2277,VALID,120,VALID,0.66543,
2001-06-12, 00:54:00,VALID,916.908,VALID,0,VALID,94.4929,VALID,0,VALID,18.2017,VALID,106,VALID,0.776042,
2001-06-12, 00:55:00,VALID,916.885,VALID,0,VALID,94.6989,VALID,-0.0509425,VALID,18.1825,VALID,89,VALID,0.969778,
2001-06-12, 00:56:00,VALID,916.879,VALID,0,VALID,94.7282,VALID,-0.0169808,VALID,18.1698,VALID,75,VALID,0.825977,
2001-06-12, 00:57:00,VALID,916.872,VALID,0,VALID,94.7053,VALID,-0.0849042,VALID,18.1502,VALID,66,VALID,0.829687,
2001-06-12, 00:58:00,VALID,916.862,VALID,0,VALID,94.5667,VALID,-0.0169808,VALID,18.1631,VALID,70,VALID,0.624399,
2001-06-12, 00:59:00,VALID,916.867,VALID,0,VALID,94.3416,VALID,-0.0339617,VALID,18.1892,VALID,74,VALID,0.664885,
2001-06-12, 01:00:00,VALID,916.874,VALID,0,VALID,94.1979,VALID,-0.0509425,VALID,18.2155,VALID,79,VALID,0.636133,
2001-06-12, 01:01:00,VALID,916.889,VALID,0,VALID,93.9016,VALID,-0.0679233,VALID,18.2245,VALID,68,VALID,0.872852,
2001-06-12, 01:02:00,VALID,916.884,VALID,0,VALID,93.5977,VALID,-0.101885,VALID,18.218,VALID,82,VALID,0.692708,
2001-06-12, 01:03:00,VALID,916.891,VALID,0,VALID,93.44,VALID,-0.0849042,VALID,18.2249,VALID,80,VALID,0.900493,
2001-06-12, 01:04:00,VALID,916.909,VALID,0,VALID,93.3955,VALID,-0.0849042,VALID,18.2146,VALID,90,VALID,0.999609,
2001-06-12, 01:05:00,VALID,916.9,VALID,0,VALID,93.3739,VALID,-0.0849042,VALID,18.218,VALID,101,VALID,0.858984,
2001-06-12, 01:06:00,VALID,916.903,VALID,0,VALID,93.2824,VALID,-0.101885,VALID,18.2376,VALID,110,VALID,1.03065,
2001-06-12, 01:07:00,VALID,916.891,VALID,0,VALID,93.1654,VALID,-0.0849042,VALID,18.2671,VALID,118,VALID,0.542763,
2001-06-12, 01:08:00,VALID,916.876,VALID,0,VALID,93.215,VALID,-0.0849042,VALID,18.2828,VALID,128,VALID,0.820703,
2001-06-12, 01:09:00,VALID,916.864,VALID,0,VALID,92.9632,VALID,-0.0679233,VALID,18.3253,VALID,129,VALID,1.12129,
2001-06-12, 01:10:00,VALID,916.853,VALID,0,VALID,92.6504,VALID,-0.0679233,VALID,18.3896,VALID,138,VALID,0.877604,
2001-06-12, 01:11:00,VALID,916.834,VALID,0,VALID,92.2854,VALID,-0.0679233,VALID,18.4441,VALID,136,VALID,1.03988,
2001-06-12, 01:12:00,VALID,916.81,VALID,0,VALID,91.792,VALID,-0.0849042,VALID,18.4893,VALID,131,VALID,0.869336,
2001-06-12, 01:13:00,VALID,916.794,VALID,0,VALID,91.7857,VALID,-0.0679233,VALID,18.5603,VALID,124,VALID,0.422656,
2001-06-12, 01:14:00,VALID,916.777,VALID,0,VALID,91.6382,VALID,-0.0509425,VALID,18.5928,VALID,103,VALID,0.473357,
2001-06-12, 01:15:00,VALID,916.777,VALID,0,VALID,91.375,VALID,-0.0169808,VALID,18.609,VALID,111,VALID,0.724095,
2001-06-12, 01:16:00,VALID,916.783,VALID,0,VALID,91.0952,VALID,-0.0509425,VALID,18.5991,VALID,105,VALID,0.723047,
2001-06-12, 01:17:00,VALID,916.794,VALID,0,VALID,90.8549,VALID,-0.0679233,VALID,18.6184,VALID,94,VALID,0.925781,
2001-06-12, 01:18:00,VALID,916.795,VALID,0,VALID,91.1257,VALID,-0.0509425,VALID,18.6475,VALID,81,VALID,0.889824,
2001-06-12, 01:19:00,VALID,916.789,VALID,0,VALID,90.5637,VALID,-0.0679233,VALID,18.6667,VALID,96,VALID,1.02919,
2001-06-12, 01:20:00,VALID,916.779,VALID,0,VALID,90.1084,VALID,-0.0679233,VALID,18.6858,VALID,112,VALID,1.32012,
2001-06-12, 01:21:00,VALID,916.754,VALID,0,VALID,89.5286,VALID,-0.0169808,VALID,18.725,VALID,111,VALID,1.42715,
2001-06-12, 01:22:00,VALID,916.728,VALID,0,VALID,89.1446,VALID,-0.0339617,VALID,18.7472,VALID,110,VALID,1.4974,
2001-06-12, 01:23:00,VALID,916.702,VALID,0,VALID,88.7478,VALID,-0.0339617,VALID,18.7797,VALID,106,VALID,1.55962,
2001-06-12, 01:24:00,VALID,916.669,VALID,0,VALID,88.2366,VALID,-0.0679233,VALID,18.7986,VALID,110,VALID,1.68223,
2001-06-12, 01:25:00,VALID,916.654,VALID,0,VALID,88.3638,VALID,-0.0679233,VALID,18.8475,VALID,112,VALID,1.51816,
2001-06-12, 01:26:00,VALID,916.628,VALID,0,VALID,88.4528,VALID,-0.0169808,VALID,18.8602,VALID,109,VALID,1.35517,
2001-06-12, 01:27:00,VALID,916.62,VALID,0,VALID,89.0238,VALID,-0.0169808,VALID,18.8408,VALID,116,VALID,1.29852,
2001-06-12, 01:28:00,VALID,916.615,VALID,0,VALID,89.3646,VALID,-0.0169808,VALID,18.8053,VALID,119,VALID,1.29512,
2001-06-12, 01:29:00,VALID,916.597,VALID,0,VALID,89.5426,VALID,-0.0339617,VALID,18.7635,VALID,120,VALID,1.29512,
2001-06-12, 01:30:00,VALID,916.592,VALID,0,VALID,89.3925,VALID,-0.0339617,VALID,18.7273,VALID,112,VALID,1.30188,
2001-06-12, 01:31:00,VALID,916.569,VALID,0,VALID,89.6532,VALID,-0.0339617,VALID,18.7409,VALID,111,VALID,1.28022,
2001-06-12, 01:32:00,VALID,916.562,VALID,0,VALID,89.5553,VALID,-0.0339617,VALID,18.7183,VALID,105,VALID,1.23359,
2001-06-12, 01:33:00,VALID,916.572,VALID,0,VALID,89.6799,VALID,-0.0339617,VALID,18.7052,VALID,96,VALID,0.976172,
2001-06-12, 01:34:00,VALID,916.559,VALID,0,VALID,89.727,VALID,-0.0169808,VALID,18.6948,VALID,103,VALID,1.10116,
2001-06-12, 01:35:00,VALID,916.547,VALID,0,VALID,89.6621,VALID,-0.0339617,VALID,18.6761,VALID,105,VALID,1.17475,
2001-06-12, 01:36:00,VALID,916.532,VALID,0,VALID,89.521,VALID,-0.0169808,VALID,18.6789,VALID,118,VALID,1.16582,
2001-06-12, 01:37:00,VALID,916.508,VALID,0,VALID,89.6151,VALID,-0.0169808,VALID,18.6987,VALID,117,VALID,0.873633,
2001-06-12, 01:38:00,VALID,916.476,VALID,0,VALID,89.5617,VALID,0,VALID,18.7179,VALID,113,VALID,1.01863,
2001-06-12, 01:39:00,VALID,916.45,VALID,0,VALID,89.6786,VALID,-0.0679233,VALID,18.7119,VALID,114,VALID,0.961349,
2001-06-12, 01:40:00,VALID,916.439,VALID,0,VALID,89.9851,VALID,-0.0679233,VALID,18.6987,VALID,125,VALID,0.693164,
2001-06-12, 01:41:00,VALID,916.428,VALID,0,VALID,89.7626,VALID,-0.0849042,VALID,18.6828,VALID,104,VALID,1.05039,
2001-06-12, 01:42:00,VALID,916.424,VALID,0,VALID,89.7969,VALID,-0.0849042,VALID,18.689,VALID,92,VALID,0.872796,
2001-06-12, 01:43:00,VALID,916.443,VALID,0,VALID,89.7638,VALID,-0.0509425,VALID,18.6759,VALID,91,VALID,0.74815,
2001-06-12, 01:44:00,VALID,916.414,VALID,0,VALID,89.816,VALID,-0.0339617,VALID,18.6761,VALID,100,VALID,0.633203,
2001-06-12, 01:45:00,VALID,916.405,VALID,0,VALID,90.0792,VALID,-0.0169808,VALID,18.6664,VALID,94,VALID,0.299219,
2001-06-12, 01:46:00,VALID,916.386,VALID,0,VALID,90.275,VALID,-0.0509425,VALID,18.6669,VALID,92,VALID,0.0376603,
2001-06-12, 01:47:00,VALID,916.362,VALID,0,VALID,90.4899,VALID,-0.0169808,VALID,18.6376,VALID,191,VALID,0.314556,
2001-06-12, 01:48:00,VALID,916.329,VALID,0,VALID,90.3094,VALID,-0.0509425,VALID,18.6051,VALID,222,VALID,0.464063,
2001-06-12, 01:49:00,VALID,916.292,VALID,0,VALID,90.481,VALID,-0.0339617,VALID,18.5891,VALID,208,VALID,0.280664,
2001-06-12, 01:50:00,VALID,916.281,VALID,0,VALID,90.6018,VALID,-0.0509425,VALID,18.6053,VALID,155,VALID,0.6252,
2001-06-12, 01:51:00,VALID,916.257,VALID,0,VALID,90.3615,VALID,-0.0169808,VALID,18.5984,VALID,134,VALID,0.845189,
2001-06-12, 01:52:00,VALID,916.253,VALID,0,VALID,89.7867,VALID,-0.0339617,VALID,18.5951,VALID,128,VALID,1.04004,
2001-06-12, 01:53:00,VALID,916.248,VALID,0,VALID,89.4154,VALID,-0.0339617,VALID,18.6274,VALID,137,VALID,1.15313,
2001-06-12, 01:54:00,VALID,916.242,VALID,0,VALID,89.2552,VALID,-0.0509425,VALID,18.6632,VALID,141,VALID,1.53946,
2001-06-12, 01:55:00,VALID,916.243,VALID,0,VALID,89.217,VALID,0,VALID,18.7047,VALID,144,VALID,1.60588,
2001-06-12, 01:56:00,VALID,916.241,VALID,0,VALID,89.5451,VALID,0,VALID,18.7504,VALID,139,VALID,1.71191,
2001-06-12, 01:57:00,VALID,916.248,VALID,0,VALID,89.952,VALID,0,VALID,18.7308,VALID,143,VALID,1.81836,
2001-06-12, 01:58:00,VALID,916.242,VALID,0,VALID,90.4658,VALID,-0.0679233,VALID,18.6828,VALID,145,VALID,1.5605,
2001-06-12, 01:59:00,VALID,916.229,VALID,0,VALID,91.1067,VALID,-0.0339617,VALID,18.6147,VALID,144,VALID,1.96443,
2001-06-12, 02:00:00,VALID,916.209,VALID,0,VALID,91.5008,VALID,0,VALID,18.5601,VALID,148,VALID,2.03965,
2001-06-12, 02:01:00,VALID,916.177,VALID,0,VALID,91.6738,VALID,-0.0339617,VALID,18.5211,VALID,149,VALID,1.93848,
2001-06-12, 02:02:00,VALID,916.146,VALID,0,VALID,91.7437,VALID,-0.0509425,VALID,18.498,VALID,142,VALID,1.66687,
2001-06-12, 02:03:00,VALID,916.122,VALID,0,VALID,91.7018,VALID,-0.0679233,VALID,18.498,VALID,140,VALID,1.43483,
2001-06-12, 02:04:00,VALID,916.127,VALID,0,VALID,91.6662,VALID,-0.0169808,VALID,18.5211,VALID,126,VALID,1.13809,
2001-06-12, 02:05:00,VALID,916.122,VALID,0,VALID,91.6369,VALID,-0.0679233,VALID,18.534,VALID,120,VALID,0.83457,
2001-06-12, 02:06:00,VALID,916.13,VALID,0,VALID,91.6929,VALID,-0.0849042,VALID,18.5437,VALID,118,VALID,0.554688,
2001-06-12, 02:07:00,VALID,916.137,VALID,0,VALID,91.67,VALID,-0.0509425,VALID,18.5598,VALID,138,VALID,1.04338,
2001-06-12, 02:08:00,VALID,916.137,VALID,0,VALID,91.7348,VALID,-0.0509425,VALID,18.5499,VALID,134,VALID,1.0543,
2001-06-12, 02:09:00,VALID,916.149,VALID,0,VALID,91.8582,VALID,-0.0339617,VALID,18.537,VALID,129,VALID,1.075,
2001-06-12, 02:10:00,VALID,916.136,VALID,0,VALID,92.0286,VALID,-0.0679233,VALID,18.5278,VALID,126,VALID,1.01482,
2001-06-12, 02:11:00,VALID,916.132,VALID,0,VALID,91.89,VALID,0.0509425,VALID,18.5003,VALID,130,VALID,1.07977,
2001-06-12, 02:12:00,VALID,916.124,VALID,0,VALID,91.8302,VALID,0.0169808,VALID,18.4969,VALID,118,VALID,1.05273,
2001-06-12, 02:13:00,VALID,916.13,VALID,0,VALID,91.2084,VALID,0.0169808,VALID,18.5197,VALID,115,VALID,1.14043,
2001-06-12, 02:14:00,VALID,916.138,VALID,0,VALID,90.9846,VALID,0.0339617,VALID,18.5584,VALID,108,VALID,0.799479,
2001-06-12, 02:15:00,VALID,916.145,VALID,0,VALID,90.5471,VALID,0.0169808,VALID,18.6076,VALID,121,VALID,1.06723,
2001-06-12, 02:16:00,VALID,916.161,VALID,0,VALID,90.1644,VALID,0.0339617,VALID,18.6419,VALID,123,VALID,0.875781,
2001-06-12, 02:17:00,VALID,916.152,VALID,0,VALID,89.8287,VALID,0,VALID,18.7137,VALID,132,VALID,1.11289,
2001-06-12, 02:18:00,VALID,916.156,VALID,0,VALID,89.7842,VALID,0,VALID,18.7619,VALID,132,VALID,0.909054,
2001-06-12, 02:19:00,VALID,916.146,VALID,0,VALID,89.685,VALID,0.0169808,VALID,18.7877,VALID,107,VALID,0.674137,
2001-06-12, 02:20:00,VALID,916.132,VALID,0,VALID,89.8529,VALID,0.0339617,VALID,18.8036,VALID,79,VALID,0.560156,
2001-06-12, 02:21:00,VALID,916.115,VALID,0,VALID,89.9202,VALID,0.0339617,VALID,18.7907,VALID,84,VALID,0.858008,
2001-06-12, 02:22:00,VALID,916.096,VALID,0,VALID,89.7727,VALID,0.0679233,VALID,18.785,VALID,113,VALID,1.04708,
2001-06-12, 02:23:00,VALID,916.064,VALID,0,VALID,89.8579,VALID,0.0169808,VALID,18.7979,VALID,115,VALID,0.944696,
2001-06-12, 02:24:00,VALID,916.042,VALID,0,VALID,89.9508,VALID,0.0849042,VALID,18.7974,VALID,124,VALID,0.927734,
2001-06-12, 02:25:00,VALID,916.029,VALID,0,VALID,89.8999,VALID,0,VALID,18.7912,VALID,140,VALID,0.661914,
2001-06-12, 02:26:00,VALID,916.022,VALID,0,VALID,89.8338,VALID,0.0169808,VALID,18.8043,VALID,138,VALID,0.744391,
2001-06-12, 02:27:00,VALID,916.013,VALID,0,VALID,89.9457,VALID,0,VALID,18.8011,VALID,144,VALID,0.737459,
2001-06-12, 02:28:00,VALID,916.011,VALID,0,VALID,90.1034,VALID,0.0169808,VALID,18.7743,VALID,129,VALID,0.779297,
2001-06-12, 02:29:00,VALID,916,VALID,0,VALID,90.0118,VALID,0.0339617,VALID,18.7619,VALID,132,VALID,1.02676,
2001-06-12, 02:30:00,VALID,916.012,VALID,0,VALID,89.6608,VALID,0.0339617,VALID,18.7614,VALID,119,VALID,0.904447,
2001-06-12, 02:31:00,VALID,915.99,VALID,0,VALID,89.6786,VALID,0.0339617,VALID,18.7939,VALID,112,VALID,1.22574,
2001-06-12, 02:32:00,VALID,915.991,VALID,0,VALID,89.3175,VALID,0.0679233,VALID,18.8525,VALID,104,VALID,1.19082,
2001-06-12, 02:33:00,VALID,915.988,VALID,0,VALID,89.4141,VALID,0,VALID,18.8973,VALID,88,VALID,0.737305,
2001-06-12, 02:34:00,VALID,915.988,VALID,0,VALID,89.6875,VALID,0.0169808,VALID,18.904,VALID,72,VALID,0.65605,
2001-06-12, 02:35:00,VALID,915.996,VALID,0,VALID,89.2857,VALID,0,VALID,18.8848,VALID,92,VALID,1.03988,
2001-06-12, 02:36:00,VALID,916.004,VALID,0,VALID,89.2272,VALID,0.0169808,VALID,18.8913,VALID,88,VALID,0.997461,
2001-06-12, 02:37:00,VALID,915.991,VALID,0,VALID,89.0479,VALID,0.0509425,VALID,18.9033,VALID,103,VALID,1.00039,
2001-06-12, 02:38:00,VALID,915.987,VALID,0,VALID,89.1382,VALID,0.0339617,VALID,18.9231,VALID,92,VALID,0.86278,
2001-06-12, 02:39:00,VALID,915.989,VALID,0,VALID,89.1102,VALID,0.0169808,VALID,18.9363,VALID,107,VALID,0.92537,
2001-06-12, 02:40:00,VALID,915.981,VALID,0,VALID,89.1128,VALID,0.0339617,VALID,18.943,VALID,110,VALID,0.961133,
2001-06-12, 02:41:00,VALID,915.969,VALID,0,VALID,89.245,VALID,-0.101885,VALID,18.9407,VALID,105,VALID,0.923437,
2001-06-12, 02:42:00,VALID,915.967,VALID,0,VALID,89.2412,VALID,-0.0679233,VALID,18.9183,VALID,109,VALID,1.05068,
2001-06-12, 02:43:00,VALID,915.953,VALID,0,VALID,89.5171,VALID,-0.0679233,VALID,18.9017,VALID,121,VALID,0.901316,
2001-06-12, 02:44:00,VALID,915.954,VALID,0,VALID,89.6329,VALID,-0.0849042,VALID,18.8828,VALID,124,VALID,0.905664,
2001-06-12, 02:45:00,VALID,915.955,VALID,0,VALID,89.6634,VALID,-0.0849042,VALID,18.854,VALID,115,VALID,1.2168,
2001-06-12, 02:46:00,VALID,915.984,VALID,0,VALID,89.816,VALID,-0.0169808,VALID,18.7949,VALID,111,VALID,1.13462,
2001-06-12, 02:47:00,VALID,915.997,VALID,0,VALID,89.8668,VALID,-0.0849042,VALID,18.7665,VALID,115,VALID,1.23047,
2001-06-12, 02:48:00,VALID,916.024,VALID,0,VALID,89.9101,VALID,-0.0849042,VALID,18.7601,VALID,131,VALID,1.42695,
2001-06-12, 02:49:00,VALID,916.033,VALID,0,VALID,89.9012,VALID,-0.0509425,VALID,18.7534,VALID,138,VALID,1.23066,
2001-06-12, 02:50:00,VALID,916.043,VALID,0,VALID,89.8999,VALID,-0.0679233,VALID,18.7462,VALID,143,VALID,1.01703,
2001-06-12, 02:51:00,VALID,916.054,VALID,0,VALID,90.0716,VALID,-0.0509425,VALID,18.773,VALID,123,VALID,0.585732,
2001-06-12, 02:52:00,VALID,916.067,VALID,0,VALID,90.2661,VALID,-0.0679233,VALID,18.7402,VALID,74,VALID,0.336719,
2001-06-12, 02:53:00,VALID,916.058,VALID,0,VALID,90.4708,VALID,-0.0679233,VALID,18.7179,VALID,67,VALID,0.00190549,
2001-06-12, 02:54:00,VALID,916.054,VALID,0,VALID,90.7048,VALID,-0.0509425,VALID,18.6985,VALID,67,VALID,0,
2001-06-12, 02:55:00,VALID,916.046,VALID,0,VALID,90.9858,VALID,-0.0849042,VALID,18.6563,VALID,48,VALID,0.490748,
2001-06-12, 02:56:00,VALID,916.039,VALID,0,VALID,91.0876,VALID,-0.0849042,VALID,18.618,VALID,30,VALID,0.65293,
2001-06-12, 02:57:00,VALID,916.026,VALID,0,VALID,91.2453,VALID,-0.0509425,VALID,18.5306,VALID,62,VALID,0.512109,
2001-06-12, 02:58:00,VALID,915.999,VALID,0,VALID,91.7107,VALID,0,VALID,18.495,VALID,111,VALID,0.903045,
2001-06-12, 02:59:00,VALID,915.996,VALID,0,VALID,92.0273,VALID,-0.0169808,VALID,18.4556,VALID,119,VALID,1.09211,
2001-06-12, 03:00:00,VALID,915.983,VALID,0,VALID,92.0807,VALID,-0.0679233,VALID,18.4657,VALID,117,VALID,1.13027,
2001-06-12, 03:01:00,VALID,915.973,VALID,0,VALID,91.9586,VALID,-0.0679233,VALID,18.4593,VALID,112,VALID,1.24297,
2001-06-12, 03:02:00,VALID,915.963,VALID,0,VALID,91.7463,VALID,-0.0849042,VALID,18.4727,VALID,105,VALID,1.1865,
2001-06-12, 03:03:00,VALID,915.958,VALID,0,VALID,91.82,VALID,-0.0509425,VALID,18.4789,VALID,97,VALID,0.929071,
2001-06-12, 03:04:00,VALID,915.957,VALID,0,VALID,91.6611,VALID,-0.0679233,VALID,18.4849,VALID,99,VALID,0.919531,
2001-06-12, 03:05:00,VALID,915.952,VALID,0,VALID,91.3737,VALID,-0.0679233,VALID,18.5015,VALID,84,VALID,0.80918,
2001-06-12, 03:06:00,VALID,915.952,VALID,0,VALID,91.4106,VALID,-0.0169808,VALID,18.5202,VALID,87,VALID,0.621394,
2001-06-12, 03:07:00,VALID,915.933,VALID,0,VALID,91.2643,VALID,-0.0339617,VALID,18.5306,VALID,87,VALID,0.955798,
2001-06-12, 03:08:00,VALID,915.931,VALID,0,VALID,91.0889,VALID,-0.0339617,VALID,18.5273,VALID,108,VALID,1.11426,
2001-06-12, 03:09:00,VALID,915.9,VALID,0,VALID,91.1143,VALID,-0.0679233,VALID,18.5135,VALID,116,VALID,1.03281,
2001-06-12, 03:10:00,VALID,915.874,VALID,0,VALID,91.113,VALID,-0.0169808,VALID,18.5306,VALID,112,VALID,1.15645,
2001-06-12, 03:11:00,VALID,915.861,VALID,0,VALID,91.0456,VALID,0.0169808,VALID,18.5368,VALID,107,VALID,1.0368,
2001-06-12, 03:12:00,VALID,915.868,VALID,0,VALID,90.982,VALID,-0.0169808,VALID,18.5497,VALID,96,VALID,0.999805,
2001-06-12, 03:13:00,VALID,915.874,VALID,0,VALID,90.8854,VALID,-0.0169808,VALID,18.5532,VALID,99,VALID,0.886523,
2001-06-12, 03:14:00,VALID,915.881,VALID,0,VALID,90.9045,VALID,-0.0339617,VALID,18.5626,VALID,102,VALID,0.884014,
2001-06-12, 03:15:00,VALID,915.882,VALID,0,VALID,90.8778,VALID,-0.0169808,VALID,18.5691,VALID,116,VALID,1.1141,
2001-06-12, 03:16:00,VALID,915.874,VALID,0,VALID,90.9007,VALID,-0.0339617,VALID,18.5762,VALID,118,VALID,1.0832,
2001-06-12, 03:17:00,VALID,915.881,VALID,0,VALID,90.8511,VALID,-0.0509425,VALID,18.579,VALID,114,VALID,1.16992,
2001-06-12, 03:18:00,VALID,915.867,VALID,0,VALID,90.893,VALID,-0.0509425,VALID,18.5984,VALID,115,VALID,1.27464,
2001-06-12, 03:19:00,VALID,915.895,VALID,0,VALID,90.9477,VALID,-0.0679233,VALID,18.6214,VALID,111,VALID,1.07545,
2001-06-12, 03:20:00,VALID,915.892,VALID,0,VALID,90.9286,VALID,-0.0169808,VALID,18.6113,VALID,110,VALID,1.01152,
2001-06-12, 03:21:00,VALID,915.917,VALID,0,VALID,90.9375,VALID,-0.0509425,VALID,18.621,VALID,116,VALID,0.974805,
2001-06-12, 03:22:00,VALID,915.923,VALID,0,VALID,90.743,VALID,-0.0169808,VALID,18.6277,VALID,115,VALID,0.944712,
2001-06-12, 03:23:00,VALID,915.928,VALID,0,VALID,90.2585,VALID,-0.0339617,VALID,18.6371,VALID,113,VALID,1.24322,
2001-06-12, 03:24:00,VALID,915.956,VALID,0,VALID,89.9813,VALID,-0.0169808,VALID,18.6893,VALID,105,VALID,1.18262,
2001-06-12, 03:25:00,VALID,915.991,VALID,0,VALID,89.7473,VALID,-0.0509425,VALID,18.7248,VALID,89,VALID,1.22207,
2001-06-12, 03:26:00,VALID,916.018,VALID,0,VALID,90.0004,VALID,0.0849042,VALID,18.7589,VALID,77,VALID,0.965545,
2001-06-12, 03:27:00,VALID,916.037,VALID,0,VALID,89.7994,VALID,0.0339617,VALID,18.7462,VALID,88,VALID,1.08717,
2001-06-12, 03:28:00,VALID,916.055,VALID,0,VALID,89.5362,VALID,0.0169808,VALID,18.7199,VALID,102,VALID,1.04141,
2001-06-12, 03:29:00,VALID,916.056,VALID,0,VALID,89.4548,VALID,0.0849042,VALID,18.7224,VALID,120,VALID,0.860547,
2001-06-12, 03:30:00,VALID,916.07,VALID,0,VALID,89.6646,VALID,0.0509425,VALID,18.7268,VALID,102,VALID,0.926883,